Regional Weather Roundup
Issued by NWS Goodland, KS

Home | Current Version | Previous Version | Graphics & Text | Print | Product List | Glossary On
Versions: 1 2 3 4 5 6 7 8 9 10 11 12 13 14 15 16 17 18 19 20 21 22 23 24 25 26 27 28 29 30 31 32 33 34 35 36 37 38 39 40 41 42 43 44 45 46 47 48 49 50
000
ASUS43 KGLD 280459
RWRGLD

GOODLAND FORECAST AREA HOURLY WEATHER ROUNDUP
NATIONAL WEATHER SERVICE GOODLAND KS
1100 PM MDT THU APR 27 2017

...OFFICIAL OBSERVATIONS...

CITY           SKY/WX    TMP DP  RH WIND       PRES   REMARKS
GOODLAND KS    LGT RAIN  42  41  96 S7        29.58F
HILL CITY KS   HVY RAIN  47  46  97 E12       29.62S FOG
IMPERIAL NEB   RAIN      43  40  89 E12       29.62R
MCCOOK NEB     LGT RAIN  44  43  96 E17       29.61F
AKRON CO       CLOUDY    38  36  92 W7        29.62F
BURLINGTON CO  NOT AVBL
LIMON CO       CLOUDY    37  35  92 NW8       29.66R
$$

...UNOFFICIAL OBSERVATIONS...

CITY           SKY/WX    TMP DP  RH WIND       PRES   REMARKS
LENORA KS        N/A     45  32  60 MISG        N/A
NORTON KS      LGT RAIN  45  41  87 E10       29.65S
SHARON SPRINGS   N/A     41  39  93 W7          N/A
KIT CARSON CO    N/A     38  34  86 MISG        N/A
$$



USA.gov is the U.S. government's official web portal to all federal, state and local government web resources and services.